Regional Weather Roundup
Issued by NWS

Home | Current Version | Previous Version | Graphics & Text | Print | Product List | Glossary On
Versions: 1 2 3 4 5 6 7 8 9 10 11 12 13 14 15 16 17 18 19 20 21 22 23 24 25 26 27
000
ASUS45 KBOU 272007
RWRCO

WEATHER ROUNDUP FOR COLORADO
NATIONAL WEATHER SERVICE DENVER/BOULDER CO
200 PM MDT WED JUL 27 2016

NOTE: "FAIR" INDICATES FEW OR NO CLOUDS BELOW 12000 FEET WITH NO
SIGNIFICANT WEATHER AND/OR OBSTRUCTIONS TO VISIBILITY.

COZ001>005-013-030-031-272100-
...NORTHWEST COLORADO...

CITY           SKY/WX    TMP DP  RH WIND       PRES   REMARKS
CRAIG          FAIR      93  25   8 W12G21    30.24F
HAYDEN         FAIR      88  30  12 W15G22    30.27F
MEEKER         FAIR      90  37  15 SW16G22   30.25F
MOUNT WERNER   NOT AVBL
STEAMBOAT SPGS FAIR      85  35  17 W7        30.29F
WALDEN         FAIR      79  27  14 W13G20    30.40F
$$

COZ006>008-011-272100-
...WEST CENTRAL VALLEYS...

CITY           SKY/WX    TMP DP  RH WIND       PRES   REMARKS
GRAND JUNCTION FAIR      95  41  15 W6        30.13F
MONTROSE       FAIR      92  40  16 NW10      30.23F
EAGLE          SUNNY     88  30  12 CALM      30.27F
RIFLE          FAIR      93  37  14 NE7       30.18F
DELTA          NOT AVBL
NUCLA          NOT AVBL
$$

COZ017>023-064>068-272100-
...SOUTHWEST COLORADO...

CITY           SKY/WX    TMP DP  RH WIND       PRES   REMARKS
DURANGO        FAIR      88  38  17 SW5       30.25F
CORTEZ         FAIR      92  40  16 VRB3      30.21F
PAGOSA SPRINGS FAIR      87  17   7 N10       30.34F
TELLURIDE      FAIR      79  34  20 CALM      30.52F
WOLF CREEK PAS FAIR      61  27  27 N14G20    30.75S
$$

COZ009-010-012-014-032>034-037-058>063-272100-
...CENTRAL COLORADO...

CITY           SKY/WX    TMP DP  RH WIND       PRES   REMARKS
ASPEN          FAIR      85  23  10 N15G24    30.38S
BUENA VISTA    FAIR      86  18   8 NW16G22   30.35F
COPPER MTN     FAIR      66  14  13 W9G22     30.75S
BERTHOUD PASS  FAIR      55  41  58 MISG      30.74F
COTTONWOOD PAS FAIR      82   5   5 CALM      30.53F
GUNNISON       FAIR      84  32  15 W14       30.38F
KREMMLING      FAIR      88  19   8 NW8       30.34F
LEADVILLE      FAIR      75  13   9 N16G28    30.54F
MONARCH PASS   FAIR      66  21  18 MISG      30.83F
SALIDA         FAIR      87  25  10 S3        30.39F
SUNLIGHT       FAIR      73  32  21 MISG      30.68F
WILKERSON PASS FAIR      70  18  13 N5        30.68F
$$

COZ069>075-272100-
...SAN LUIS VALLEY/SANGRE DE CRISTO MOUNTAINS...

CITY           SKY/WX    TMP DP  RH WIND       PRES   REMARKS
ALAMOSA        FAIR      86  31  13 N7G17     30.34F
LA VETA PASS   FAIR      77  34  20 NE8       30.56F
SAGUACHE       FAIR      86  32  14 W12       30.35F
$$

COZ035-036-038>040-272100-
...NORTHERN COLORADO FRONT RANGE...

CITY           SKY/WX    TMP DP  RH WIND       PRES   REMARKS
DENVER INTL AP FAIR      86  53  32 NE6       30.17F
DMNS CITY PARK   N/A     86  48  26 E3G10     30.17F
AURORA         MOSUNNY   87  48  25 E3        30.20F
FRONT RANGE AP MOSUNNY   88  50  27 NE6       30.19F
ERIE MUNI ARPT FAIR      86  49  28 NE5       30.17F
BOULDER MUN AP FAIR      84  48  28 E7        30.18F
CENTENNIAL     FAIR      85  43  22 SE5       30.21F
BROOMFIELD     NOT AVBL
LONGMONT       NOT AVBL
$$

COZ041-046-047-076>085-087-088-272100-
...PIKES PEAK/PALMER DIVIDE AND SOUTHERN FOOTHILLS...

CITY           SKY/WX    TMP DP  RH WIND       PRES   REMARKS
COLO. SPRINGS  FAIR      90  40  17 NE15G24   30.23F
A. F. ACADEMY  MOSUNNY   87  33  14 NE8       30.25F
SCHRIEVER AFB  NOT AVBL
ELLICOTT       FAIR     N/A N/A N/A W7        30.22F
FALCON         NOT AVBL
FORT CARSON    FAIR      89  44  20 E10       30.20F
LIMON          FAIR      90  43  19 VRB5      30.17F
MONUMENT HILL  FAIR      81  41  24 NE7       30.32F
TRINIDAD       NOT AVBL
$$

COZ042>045-048>051-090-091-272100-
...NORTHEAST COLORADO...

CITY           SKY/WX    TMP DP  RH WIND       PRES   REMARKS
GREELEY ARPT   FAIR      88  55  33 E8        30.15F
AKRON          FAIR      83  63  50 E10       30.14F
BURLINGTON     FAIR      86  57  37 E9G17     30.13F
WRAY           NOT AVBL
STERLING       NOT AVBL
HOLYOKE        NOT AVBL
FORT MORGAN    NOT AVBL
$$

COZ086-089-092>099-272100-
...SOUTHEAST COLORADO...

CITY           SKY/WX    TMP DP  RH WIND       PRES   REMARKS
PUEBLO         FAIR      94  43  17 SE9       30.10F
LA JUNTA       FAIR      91  59  33 E8        30.09F
LAMAR          FAIR      90  65  43 NE7       30.06F
SPRINGFIELD      N/A     92  58  31 SE8       30.09F
$$




USA.gov is the U.S. government's official web portal to all federal, state and local government web resources and services.